Las Vegas, NV

12:18 AM PDT on August 24, 2016 (GMT -0700)
Nellis AFB

Weather History for KLSV - February, 2013

Change the Weather History Date:

Friday, February 15, 2013

  Actual Average Record
Temperature  
Mean Temperature 56 °F -  
Max Temperature 68 °F 61 °F 77 °F (2015)
Min Temperature 45 °F 40 °F 32 °F (2004)
Degree Days  
Heating Degree Days 8    
Growing Degree Days 6 (Base 50)    
Moisture  
Dew Point 21 °F    
Average Humidity 28    
Maximum Humidity 44    
Minimum Humidity 15    
Precipitation  
Precipitation 0.00 in - - ()
Sea Level Pressure  
Sea Level Pressure 30.34 in    
Wind  
Wind Speed 5 mph (NNE)    
Max Wind Speed 16 mph    
Max Gust Speed 24 mph    
Visibility 10 miles    
Events      
Averages and records for this station are not official NWS values.
T = Trace of Precipitation, MM = Missing Value Source: NWS Daily Summary

Daily Weather History Graph

Daily Weather History Graph

Search for Another Location

Airport or City:

Trip Planner

Search our weather history database for the weather conditions in past years. The results will help you decide how hot, cold, wet, or windy it might be!

Date:

Astronomy

Feb. 15, 2013 Rise Set
Actual Time 6:27 AM PST 5:21 PM PST
Civil Twilight 6:01 AM PST 5:47 PM PST
Nautical Twilight 5:30 AM PST 6:18 PM PST
Astronomical Twilight 5:01 AM PST 6:47 PM PST
Moon 9:17 AM PST (2/15) 11:13 PM PST (2/15)
Length of Visible Light 11h 46m
Length of Day
10h 54m
Waxing Crescent, 31% of the Moon is Illuminated
Feb 15
Waxing Crescent
Feb 17
First Quarter
Feb 25
Full
Mar 4
Last Quarter
Mar 11
New

Hourly Weather History & Observations

Time (PST) Temp. Dew Point Humidity Pressure Visibility Wind Dir Wind Speed Gust Speed Precip Events Conditions
12:58 AM 46.6 °F 24.8 °F 43% 30.32 in 10.0 mi NE 5.8 mph 18.4 mph N/A   Clear
1:58 AM 46.9 °F 24.3 °F 41% 30.32 in 10.0 mi NE 3.5 mph - N/A   Clear
2:58 AM 45.7 °F 24.6 °F 44% 30.32 in 10.0 mi NNE 1.2 mph 17.3 mph N/A   Clear
3:58 AM 47.8 °F 23.7 °F 39% 30.32 in 10.0 mi Calm Calm - N/A   Clear
4:58 AM 48.0 °F 22.8 °F 37% 30.35 in 10.0 mi NNE 1.2 mph - N/A   Clear
5:58 AM 50.2 °F 22.5 °F 34% 30.36 in 10.0 mi Calm Calm - N/A   Clear
6:58 AM 45.5 °F 22.6 °F 41% 30.38 in 10.0 mi Calm Calm - N/A   Clear
7:58 AM 48.9 °F 23.4 °F 37% 30.41 in 10.0 mi Calm Calm - N/A   Clear
8:58 AM 54.9 °F 21.6 °F 27% 30.41 in 10.0 mi NE 16.1 mph - N/A   Clear
9:58 AM 57.6 °F 22.3 °F 26% 30.40 in 10.0 mi Variable 3.5 mph - N/A   Clear
10:58 AM 60.8 °F 21.6 °F 22% 30.39 in 10.0 mi West 4.6 mph - N/A   Clear
11:58 AM 62.8 °F 20.3 °F 20% 30.36 in 10.0 mi NNW 8.1 mph - N/A   Clear
12:58 PM 65.1 °F 19.6 °F 17% 30.34 in 10.0 mi East 12.7 mph - N/A   Clear
1:58 PM 66.6 °F 17.8 °F 15% 30.32 in 10.0 mi NE 11.5 mph - N/A   Clear
2:58 PM 67.5 °F 18.7 °F 16% 30.30 in 10.0 mi NNE 16.1 mph - N/A   Clear
3:00 PM 68.0 °F 19.4 °F 16% 30.31 in 10.0 mi North 13.8 mph 24.2 mph N/A   Clear
3:58 PM 67.5 °F 18.7 °F 16% 30.29 in 10.0 mi NE 9.2 mph - N/A   Clear
4:58 PM 66.6 °F 17.8 °F 15% 30.28 in 10.0 mi NE 9.2 mph - N/A   Clear
5:58 PM 63.5 °F 19.0 °F 18% 30.30 in 10.0 mi Calm Calm - N/A   Clear
6:58 PM 55.6 °F 19.0 °F 24% 30.32 in 10.0 mi ENE 5.8 mph - N/A   Clear
7:58 PM 53.4 °F 19.0 °F 26% 30.34 in 10.0 mi Calm Calm - N/A   Clear
8:58 PM 49.5 °F 19.0 °F 30% 30.35 in 10.0 mi NE 3.5 mph - N/A   Clear
9:58 PM 49.1 °F 18.7 °F 30% 30.35 in 10.0 mi NE 2.3 mph - N/A   Clear
10:58 PM 47.7 °F 19.9 °F 33% 30.36 in 10.0 mi NNW 4.6 mph - N/A   Clear
11:58 PM 47.3 °F 20.3 °F 34% 30.35 in 10.0 mi NNW 5.8 mph - N/A   Clear